Location: Monfort
(47.1967°N, 0.2115°W)
Time: 03:59:45
(UTC+00:00)

Cosmos 1606 Rocket - Pass Details

Date: 24 October 2020
Orbit: 603 x 631 km, 82.5° (Epoch: 01 December)

Event Time Altitude Azimuth Distance (km) Brightness Sun altitude
Rises 17:52:58 0° 180° (S) 2,857 7.1 -10.2°
Reaches altitude 10° 17:55:10 10° 177° (S) 1,962 6.2 -10.6°
Maximum altitude 17:59:28 66° 96° (E) 675 3.5 -11.3°
Drops below altitude 10° 18:03:51 10° 15° (NNE) 1,996 6.0 -12.0°
Sets 18:06:06 0° 12° (NNE) 2,912 6.8 -12.4°
